Location: Degersen
(52.2871°N, 9.5716°E)
Time: 09:01:39
(UTC+00:00)

Cosmos 1953 - Pass Details

Date: 20 January 2026
Orbit: 474 x 489 km, 82.5° (Epoch: 18 February)

Event Time Altitude Azimuth Distance (km) Brightness Sun altitude
Rises 05:42:23 0° 188° (S) 2,542 5.8 -14.3°
Reaches altitude 10° 05:44:28 10° 188° (S) 1,670 4.9 -14.0°
Maximum altitude 05:48:07 86° 103° (ESE) 498 2.1 -13.5°
Drops below altitude 10° 05:51:50 10° 11° (NNE) 1,695 4.8 -12.9°
Sets 05:53:58 0° 12° (NNE) 2,585 5.7 -12.6°
